#datetime,building,power
2022-11-09T00:01:00,cen,8.40
2022-11-09T00:02:00,cen,6.00
2022-11-09T00:03:00,cen,3.60
2022-11-09T00:05:00,cen,9.59
2022-11-09T00:06:00,cen,4.80
2022-11-09T00:08:00,cen,9.60
2022-11-09T00:10:00,cen,10.80
2022-11-09T00:12:00,cen,7.20
2022-11-09T00:14:00,cen,8.40
2022-11-09T00:15:00,cen,3.60
2022-11-09T00:17:00,cen,7.20
2022-11-09T00:19:00,cen,7.20
2022-11-09T00:20:00,cen,4.80
2022-11-09T00:21:00,cen,3.60
2022-11-09T00:23:00,cen,9.59
2022-11-09T00:24:00,cen,3.60
2022-11-09T00:26:00,cen,8.40
2022-11-09T00:27:00,cen,3.60
2022-11-09T00:29:00,cen,10.80
2022-11-09T00:30:00,cen,4.80
2022-11-09T00:32:00,cen,9.60
2022-11-09T00:33:00,cen,4.80
2022-11-09T00:35:00,cen,9.60
2022-11-09T00:36:00,cen,3.60
2022-11-09T00:38:00,cen,8.40
2022-11-09T00:39:00,cen,4.80
2022-11-09T00:41:00,cen,7.20
2022-11-09T00:43:00,cen,8.40
2022-11-09T00:44:00,cen,4.80
2022-11-09T00:45:00,cen,3.60
2022-11-09T00:47:00,cen,8.40
2022-11-09T00:49:00,cen,10.80
2022-11-09T00:51:00,cen,9.60
2022-11-09T00:53:00,cen,7.20
2022-11-09T00:55:00,cen,9.59
2022-11-09T00:57:00,cen,8.40
2022-11-09T00:58:00,cen,4.80
2022-11-09T01:00:00,cen,9.59
2022-11-09T01:01:00,cen,4.80
2022-11-09T01:03:00,cen,7.20
2022-11-09T01:05:00,cen,9.59
2022-11-09T01:06:00,cen,4.80
2022-11-09T01:07:00,cen,3.60
2022-11-09T01:08:00,cen,3.60
2022-11-09T01:09:00,cen,3.60
2022-11-09T01:11:00,cen,8.40
2022-11-09T01:12:00,cen,4.80
2022-11-09T01:14:00,cen,10.80
2022-11-09T01:16:00,cen,8.40
2022-11-09T01:18:00,cen,8.40
2022-11-09T01:19:00,cen,3.60
2022-11-09T01:20:00,cen,3.60
2022-11-09T01:22:00,cen,8.40
2022-11-09T01:23:00,cen,4.80
2022-11-09T01:24:00,cen,3.60
2022-11-09T01:26:00,cen,9.59
2022-11-09T01:27:00,cen,4.80
2022-11-09T01:28:00,cen,3.60
2022-11-09T01:30:00,cen,8.40
2022-11-09T01:31:00,cen,4.80
2022-11-09T01:33:00,cen,9.59
2022-11-09T01:35:00,cen,10.80
2022-11-09T01:37:00,cen,9.60
2022-11-09T01:39:00,cen,8.39
2022-11-09T01:40:00,cen,8.40
2022-11-09T01:42:00,cen,25.20
2022-11-09T01:44:00,cen,25.20
2022-11-09T01:46:00,cen,13.20
2022-11-09T01:48:00,cen,9.60
2022-11-09T01:50:00,cen,8.39
2022-11-09T01:52:00,cen,9.60
2022-11-09T01:53:00,cen,6.00
2022-11-09T01:55:00,cen,9.60
2022-11-09T01:57:00,cen,8.40
2022-11-09T01:59:00,cen,8.40
2022-11-09T02:01:00,cen,7.20
2022-11-09T02:03:00,cen,7.20
2022-11-09T02:05:00,cen,7.20
2022-11-09T02:06:00,cen,4.80
2022-11-09T02:07:00,cen,3.60
2022-11-09T02:08:00,cen,3.60
2022-11-09T02:10:00,cen,7.20
2022-11-09T02:11:00,cen,3.60
2022-11-09T02:13:00,cen,7.20
2022-11-09T02:14:00,cen,3.60
2022-11-09T02:16:00,cen,8.40
2022-11-09T02:17:00,cen,4.80
2022-11-09T02:19:00,cen,9.59
2022-11-09T02:21:00,cen,7.20
2022-11-09T02:22:00,cen,4.80
2022-11-09T02:23:00,cen,3.60
2022-11-09T02:25:00,cen,8.40
2022-11-09T02:27:00,cen,8.40
2022-11-09T02:28:00,cen,4.80
2022-11-09T02:29:00,cen,3.60
2022-11-09T02:30:00,cen,3.60
2022-11-09T02:31:00,cen,8.40
2022-11-09T02:32:00,cen,4.80
2022-11-09T02:34:00,cen,7.20
2022-11-09T02:36:00,cen,9.60
2022-11-09T02:37:00,cen,3.60
2022-11-09T02:39:00,cen,9.59
2022-11-09T02:41:00,cen,10.80
2022-11-09T02:43:00,cen,9.60
2022-11-09T02:45:00,cen,9.59
2022-11-09T02:47:00,cen,10.80
2022-11-09T02:49:00,cen,8.40
2022-11-09T02:51:00,cen,9.59
2022-11-09T02:53:00,cen,9.60
2022-11-09T02:54:00,cen,3.60
2022-11-09T02:55:00,cen,4.80
2022-11-09T02:57:00,cen,8.40
2022-11-09T02:58:00,cen,4.80
2022-11-09T03:00:00,cen,8.40
2022-11-09T03:01:00,cen,3.60
2022-11-09T03:03:00,cen,8.40
2022-11-09T03:05:00,cen,9.59
2022-11-09T03:07:00,cen,10.80
2022-11-09T03:08:00,cen,9.60
2022-11-09T03:09:00,cen,4.80
2022-11-09T03:10:00,cen,4.80
2022-11-09T03:12:00,cen,9.60
2022-11-09T03:14:00,cen,9.60
2022-11-09T03:16:00,cen,9.59
2022-11-09T03:18:00,cen,10.80
2022-11-09T03:19:00,cen,4.80
2022-11-09T03:21:00,cen,13.21
2022-11-09T03:23:00,cen,9.59
2022-11-09T03:25:00,cen,9.60
2022-11-09T03:26:00,cen,4.80
2022-11-09T03:28:00,cen,12.00
2022-11-09T03:29:00,cen,4.80
2022-11-09T03:30:00,cen,3.60
2022-11-09T03:31:00,cen,4.80
2022-11-09T03:33:00,cen,8.40
2022-11-09T03:34:00,cen,3.60
2022-11-09T03:35:00,cen,4.80
2022-11-09T03:36:00,cen,3.60
2022-11-09T03:38:00,cen,9.60
2022-11-09T03:40:00,cen,10.80
2022-11-09T03:42:00,cen,9.59
2022-11-09T03:43:00,cen,4.80
2022-11-09T03:45:00,cen,8.40
2022-11-09T03:46:00,cen,6.00
2022-11-09T03:47:00,cen,6.00
2022-11-09T03:49:00,cen,8.40
2022-11-09T03:51:00,cen,9.60
2022-11-09T03:52:00,cen,6.00
2022-11-09T03:54:00,cen,9.59
2022-11-09T03:55:00,cen,4.80
2022-11-09T03:57:00,cen,10.80
2022-11-09T03:59:00,cen,9.60
2022-11-09T04:01:00,cen,12.00
2022-11-09T04:02:00,cen,6.01
2022-11-09T04:04:00,cen,10.80
2022-11-09T04:06:00,cen,13.20
2022-11-09T04:08:00,cen,12.00
2022-11-09T04:09:00,cen,6.00
2022-11-09T04:10:00,cen,7.20
2022-11-09T04:12:00,cen,10.80
2022-11-09T04:13:00,cen,4.80
2022-11-09T04:15:00,cen,10.80
2022-11-09T04:17:00,cen,12.00
2022-11-09T04:19:00,cen,13.20
2022-11-09T04:21:00,cen,12.00
2022-11-09T04:23:00,cen,12.00
2022-11-09T04:25:00,cen,13.20
2022-11-09T04:26:00,cen,4.80
2022-11-09T04:28:00,cen,12.00
2022-11-09T04:29:00,cen,7.20
2022-11-09T04:30:00,cen,7.20
2022-11-09T04:32:00,cen,13.20
2022-11-09T04:34:00,cen,13.21
2022-11-09T04:36:00,cen,13.20
2022-11-09T04:37:00,cen,7.20
2022-11-09T04:39:00,cen,19.20
2022-11-09T04:41:00,cen,31.20
2022-11-09T04:43:00,cen,31.20
2022-11-09T04:44:00,cen,7.20
2022-11-09T04:46:00,cen,13.20
2022-11-09T04:48:00,cen,13.21
2022-11-09T04:50:00,cen,14.40
2022-11-09T04:52:00,cen,13.20
2022-11-09T04:54:00,cen,13.20
2022-11-09T04:56:00,cen,13.20
2022-11-09T04:58:00,cen,12.00
2022-11-09T05:00:00,cen,13.20
2022-11-09T05:02:00,cen,12.00
2022-11-09T05:04:00,cen,14.40
2022-11-09T05:06:00,cen,13.21
2022-11-09T05:07:00,cen,6.00
2022-11-09T05:09:00,cen,14.40
2022-11-09T05:10:00,cen,7.20
2022-11-09T05:11:00,cen,6.00
2022-11-09T05:13:00,cen,13.20
2022-11-09T05:15:00,cen,13.21
2022-11-09T05:16:00,cen,6.00
2022-11-09T05:18:00,cen,15.60
2022-11-09T05:20:00,cen,13.20
2022-11-09T05:21:00,cen,6.00
2022-11-09T05:22:00,cen,6.00
2022-11-09T05:24:00,cen,10.80
2022-11-09T05:25:00,cen,6.00
2022-11-09T05:27:00,cen,9.60
2022-11-09T05:29:00,cen,10.80
2022-11-09T05:30:00,cen,4.80
2022-11-09T05:32:00,cen,8.40
2022-11-09T05:34:00,cen,10.80
2022-11-09T05:36:00,cen,9.60
2022-11-09T05:38:00,cen,9.60
2022-11-09T05:40:00,cen,9.59
2022-11-09T05:42:00,cen,9.60
2022-11-09T05:43:00,cen,4.80
2022-11-09T05:45:00,cen,10.80
2022-11-09T05:47:00,cen,9.60
2022-11-09T05:49:00,cen,10.80
2022-11-09T05:51:00,cen,8.40
2022-11-09T05:52:00,cen,3.60
2022-11-09T05:54:00,cen,8.40
2022-11-09T05:55:00,cen,4.80
2022-11-09T05:57:00,cen,9.60
2022-11-09T05:58:00,cen,4.80
2022-11-09T06:00:00,cen,8.40
2022-11-09T06:01:00,cen,3.60
2022-11-09T06:03:00,cen,9.60
2022-11-09T06:05:00,cen,8.40
2022-11-09T06:06:00,cen,4.80
2022-11-09T06:08:00,cen,12.00
2022-11-09T06:09:00,cen,6.00
2022-11-09T06:10:00,cen,4.80
2022-11-09T06:12:00,cen,9.60
2022-11-09T06:13:00,cen,4.80
2022-11-09T06:15:00,cen,9.60
2022-11-09T06:16:00,cen,4.80
2022-11-09T06:18:00,cen,10.80
2022-11-09T06:19:00,cen,3.60
2022-11-09T06:21:00,cen,9.59
2022-11-09T06:23:00,cen,9.60
2022-11-09T06:25:00,cen,9.60
2022-11-09T06:26:00,cen,4.80
2022-11-09T06:28:00,cen,12.00
2022-11-09T06:29:00,cen,4.80
2022-11-09T06:30:00,cen,4.80
2022-11-09T06:32:00,cen,9.60
2022-11-09T06:34:00,cen,8.40
2022-11-09T06:35:00,cen,4.80
2022-11-09T06:37:00,cen,8.40
2022-11-09T06:39:00,cen,8.40
2022-11-09T06:40:00,cen,4.80
2022-11-09T06:41:00,cen,3.60
2022-11-09T06:43:00,cen,9.60
2022-11-09T06:45:00,cen,8.39
2022-11-09T06:47:00,cen,9.60
2022-11-09T06:49:00,cen,10.80
2022-11-09T06:50:00,cen,3.60
2022-11-09T06:51:00,cen,3.60
2022-11-09T06:53:00,cen,7.20
2022-11-09T06:55:00,cen,9.60
2022-11-09T06:57:00,cen,8.39
2022-11-09T06:59:00,cen,9.60
2022-11-09T07:01:00,cen,9.60
2022-11-09T07:03:00,cen,9.60
2022-11-09T07:05:00,cen,14.40
2022-11-09T07:06:00,cen,9.59
2022-11-09T07:08:00,cen,15.60
2022-11-09T07:10:00,cen,14.40
2022-11-09T07:12:00,cen,15.60
2022-11-09T07:14:00,cen,15.60
2022-11-09T07:15:00,cen,6.00
2022-11-09T07:17:00,cen,15.60
2022-11-09T07:19:00,cen,14.40
2022-11-09T07:21:00,cen,14.41
2022-11-09T07:23:00,cen,15.59
2022-11-09T07:25:00,cen,15.60
2022-11-09T07:26:00,cen,8.40
2022-11-09T07:28:00,cen,15.60
2022-11-09T07:29:00,cen,7.20
2022-11-09T07:31:00,cen,16.80
2022-11-09T07:32:00,cen,7.20
2022-11-09T07:34:00,cen,15.60
2022-11-09T07:36:00,cen,14.40
2022-11-09T07:38:00,cen,15.60
2022-11-09T07:40:00,cen,14.40
2022-11-09T07:41:00,cen,7.20
2022-11-09T07:42:00,cen,8.40
2022-11-09T07:44:00,cen,15.60
2022-11-09T07:45:00,cen,8.40
2022-11-09T07:47:00,cen,14.40
2022-11-09T07:48:00,cen,8.40
2022-11-09T07:50:00,cen,14.40
2022-11-09T07:52:00,cen,15.60
2022-11-09T07:54:00,cen,15.60
2022-11-09T07:56:00,cen,15.60
2022-11-09T07:57:00,cen,7.20
2022-11-09T07:59:00,cen,16.79
2022-11-09T08:01:00,cen,15.60
2022-11-09T08:03:00,cen,16.80
2022-11-09T08:05:00,cen,22.80
2022-11-09T08:07:00,cen,19.20
2022-11-09T08:09:00,cen,33.60
2022-11-09T08:11:00,cen,27.60
2022-11-09T08:13:00,cen,33.60
2022-11-09T08:14:00,cen,13.20
2022-11-09T08:16:00,cen,19.20
2022-11-09T08:18:00,cen,20.41
2022-11-09T08:19:00,cen,8.40
2022-11-09T08:21:00,cen,20.40
2022-11-09T08:22:00,cen,13.20
2022-11-09T08:24:00,cen,25.20
2022-11-09T08:25:00,cen,15.60
2022-11-09T08:27:00,cen,23.99
2022-11-09T08:29:00,cen,25.20
2022-11-09T08:31:00,cen,24.00
2022-11-09T08:33:00,cen,24.00
2022-11-09T08:34:00,cen,10.80
2022-11-09T08:35:00,cen,12.00
2022-11-09T08:37:00,cen,25.20
2022-11-09T08:39:00,cen,27.60
2022-11-09T08:40:00,cen,13.20
2022-11-09T08:42:00,cen,26.40
2022-11-09T08:44:00,cen,27.60
2022-11-09T08:46:00,cen,27.60
2022-11-09T08:47:00,cen,13.20
2022-11-09T08:49:00,cen,25.20
2022-11-09T08:51:00,cen,25.20
2022-11-09T08:52:00,cen,13.20
2022-11-09T08:54:00,cen,25.20
2022-11-09T08:55:00,cen,12.00
2022-11-09T08:57:00,cen,25.20
2022-11-09T08:59:00,cen,25.20
2022-11-09T09:00:00,cen,13.20
2022-11-09T09:01:00,cen,13.21
2022-11-09T09:03:00,cen,27.60
2022-11-09T09:05:00,cen,26.40
2022-11-09T09:07:00,cen,26.40
2022-11-09T09:09:00,cen,26.40
2022-11-09T09:11:00,cen,26.40
2022-11-09T09:12:00,cen,12.00
2022-11-09T09:14:00,cen,28.80
2022-11-09T09:16:00,cen,27.60
2022-11-09T09:18:00,cen,23.99
2022-11-09T09:20:00,cen,24.00
2022-11-09T09:21:00,cen,13.21
2022-11-09T09:23:00,cen,23.99
2022-11-09T09:24:00,cen,12.00
2022-11-09T09:26:00,cen,25.20
2022-11-09T09:28:00,cen,25.20
2022-11-09T09:29:00,cen,13.20
2022-11-09T09:31:00,cen,26.40
2022-11-09T09:33:00,cen,26.40
2022-11-09T09:35:00,cen,26.40
2022-11-09T09:37:00,cen,26.40
2022-11-09T09:38:00,cen,14.40
2022-11-09T09:40:00,cen,30.00
2022-11-09T09:42:00,cen,26.40
2022-11-09T09:43:00,cen,13.20
2022-11-09T09:45:00,cen,25.20
2022-11-09T09:47:00,cen,26.40
2022-11-09T09:48:00,cen,13.20
2022-11-09T09:50:00,cen,27.60
2022-11-09T09:52:00,cen,26.40
2022-11-09T09:54:00,cen,25.20
2022-11-09T09:55:00,cen,13.20
2022-11-09T09:57:00,cen,28.80
2022-11-09T09:59:00,cen,26.40
2022-11-09T10:01:00,cen,26.40
2022-11-09T10:03:00,cen,25.20
2022-11-09T10:04:00,cen,16.80
2022-11-09T10:05:00,cen,21.60
2022-11-09T10:06:00,cen,20.40
2022-11-09T10:08:00,cen,42.00
2022-11-09T10:10:00,cen,32.40
2022-11-09T10:12:00,cen,25.20
2022-11-09T10:14:00,cen,27.60
2022-11-09T10:15:00,cen,13.20
2022-11-09T10:17:00,cen,26.40
2022-11-09T10:18:00,cen,13.20
2022-11-09T10:19:00,cen,13.20
2022-11-09T10:21:00,cen,26.40
2022-11-09T10:22:00,cen,13.20
2022-11-09T10:24:00,cen,25.20
2022-11-09T10:25:00,cen,13.20
2022-11-09T10:27:00,cen,26.40
2022-11-09T10:28:00,cen,13.20
2022-11-09T10:30:00,cen,24.00
2022-11-09T10:32:00,cen,27.60
2022-11-09T10:34:00,cen,23.99
2022-11-09T10:36:00,cen,25.20
2022-11-09T10:38:00,cen,22.80
2022-11-09T10:40:00,cen,24.00
2022-11-09T10:42:00,cen,24.00
2022-11-09T10:43:00,cen,13.20
2022-11-09T10:44:00,cen,12.00
2022-11-09T10:46:00,cen,26.40
2022-11-09T10:47:00,cen,12.00
2022-11-09T10:49:00,cen,25.20
2022-11-09T10:51:00,cen,24.00
2022-11-09T10:52:00,cen,14.40
2022-11-09T10:54:00,cen,26.40
2022-11-09T10:56:00,cen,28.80
2022-11-09T10:58:00,cen,27.60
2022-11-09T10:59:00,cen,14.40
2022-11-09T11:01:00,cen,26.40
2022-11-09T11:03:00,cen,28.80
2022-11-09T11:04:00,cen,14.40
2022-11-09T11:05:00,cen,16.80
2022-11-09T11:06:00,cen,18.00
2022-11-09T11:08:00,cen,30.00
2022-11-09T11:09:00,cen,14.40
2022-11-09T11:11:00,cen,30.00
2022-11-09T11:13:00,cen,28.80
2022-11-09T11:14:00,cen,15.60
2022-11-09T11:16:00,cen,30.00
2022-11-09T11:18:00,cen,30.00
2022-11-09T11:19:00,cen,13.20
2022-11-09T11:20:00,cen,13.20
2022-11-09T11:21:00,cen,13.21
2022-11-09T11:23:00,cen,27.60
2022-11-09T11:25:00,cen,27.60
2022-11-09T11:26:00,cen,14.40
2022-11-09T11:28:00,cen,26.40
2022-11-09T11:29:00,cen,12.00
2022-11-09T11:31:00,cen,25.20
2022-11-09T11:32:00,cen,13.20
2022-11-09T11:34:00,cen,25.20
2022-11-09T11:36:00,cen,26.40
2022-11-09T11:38:00,cen,24.00
2022-11-09T11:39:00,cen,13.20
2022-11-09T11:40:00,cen,13.21
2022-11-09T11:42:00,cen,27.60
2022-11-09T11:44:00,cen,27.60
2022-11-09T11:45:00,cen,13.20
2022-11-09T11:47:00,cen,30.00
2022-11-09T11:49:00,cen,27.60
2022-11-09T11:51:00,cen,31.20
2022-11-09T11:53:00,cen,27.60
2022-11-09T11:55:00,cen,30.00
2022-11-09T11:57:00,cen,26.40
2022-11-09T11:59:00,cen,26.40
2022-11-09T12:01:00,cen,24.00
2022-11-09T12:02:00,cen,12.00
2022-11-09T12:04:00,cen,25.20
2022-11-09T12:06:00,cen,26.40
2022-11-09T12:07:00,cen,12.00
2022-11-09T12:09:00,cen,23.99
2022-11-09T12:10:00,cen,13.21
2022-11-09T12:12:00,cen,25.20
2022-11-09T12:13:00,cen,12.00
2022-11-09T12:14:00,cen,13.20
2022-11-09T12:16:00,cen,25.20
2022-11-09T12:17:00,cen,13.20
2022-11-09T12:19:00,cen,25.20
2022-11-09T12:21:00,cen,25.20
2022-11-09T12:23:00,cen,24.00
2022-11-09T12:25:00,cen,28.80
2022-11-09T12:27:00,cen,22.80
2022-11-09T12:29:00,cen,24.00
2022-11-09T12:31:00,cen,33.60
2022-11-09T12:33:00,cen,39.60
2022-11-09T12:34:00,cen,20.40
2022-11-09T12:36:00,cen,27.60
2022-11-09T12:37:00,cen,13.20
2022-11-09T12:39:00,cen,26.40
2022-11-09T12:40:00,cen,10.80
2022-11-09T12:41:00,cen,12.00
2022-11-09T12:43:00,cen,26.40
2022-11-09T12:45:00,cen,24.00
2022-11-09T12:46:00,cen,12.00
2022-11-09T12:48:00,cen,26.40
2022-11-09T12:50:00,cen,24.00
2022-11-09T12:52:00,cen,22.80
2022-11-09T12:53:00,cen,12.00
2022-11-09T12:55:00,cen,23.99
2022-11-09T12:56:00,cen,12.00
2022-11-09T12:58:00,cen,24.00
2022-11-09T12:59:00,cen,13.20
2022-11-09T13:01:00,cen,25.20
2022-11-09T13:02:00,cen,15.60
2022-11-09T13:04:00,cen,26.40
2022-11-09T13:06:00,cen,27.60
2022-11-09T13:08:00,cen,25.20
2022-11-09T13:09:00,cen,10.80
2022-11-09T13:11:00,cen,22.80
2022-11-09T13:12:00,cen,12.00
2022-11-09T13:14:00,cen,24.00
2022-11-09T13:16:00,cen,23.99
2022-11-09T13:18:00,cen,24.00
2022-11-09T13:20:00,cen,25.20
2022-11-09T13:22:00,cen,25.20
2022-11-09T13:23:00,cen,10.80
2022-11-09T13:24:00,cen,12.00
2022-11-09T13:26:00,cen,22.80
2022-11-09T13:28:00,cen,24.00
2022-11-09T13:30:00,cen,25.20
2022-11-09T13:32:00,cen,22.80
2022-11-09T13:33:00,cen,10.80
2022-11-09T13:35:00,cen,24.00
2022-11-09T13:36:00,cen,12.00
2022-11-09T13:38:00,cen,22.79
2022-11-09T13:40:00,cen,24.00
2022-11-09T13:42:00,cen,22.80
2022-11-09T13:44:00,cen,25.20
2022-11-09T13:45:00,cen,12.00
2022-11-09T13:47:00,cen,22.80
2022-11-09T13:49:00,cen,24.00
2022-11-09T13:51:00,cen,25.20
2022-11-09T13:52:00,cen,12.00
2022-11-09T13:53:00,cen,12.00
2022-11-09T13:55:00,cen,24.00
2022-11-09T13:56:00,cen,12.00
2022-11-09T13:58:00,cen,25.20
2022-11-09T14:00:00,cen,24.00
2022-11-09T14:01:00,cen,12.00
2022-11-09T14:03:00,cen,23.99
2022-11-09T14:05:00,cen,22.80
2022-11-09T14:07:00,cen,24.00
2022-11-09T14:09:00,cen,27.60
2022-11-09T14:10:00,cen,13.21
2022-11-09T14:12:00,cen,25.20
2022-11-09T14:14:00,cen,24.00
2022-11-09T14:15:00,cen,10.80
2022-11-09T14:16:00,cen,12.00
2022-11-09T14:18:00,cen,24.00
2022-11-09T14:20:00,cen,24.00
2022-11-09T14:22:00,cen,23.99
2022-11-09T14:24:00,cen,24.00
2022-11-09T14:25:00,cen,10.80
2022-11-09T14:27:00,cen,22.80
2022-11-09T14:28:00,cen,12.00
2022-11-09T14:30:00,cen,26.40
2022-11-09T14:32:00,cen,23.99
2022-11-09T14:34:00,cen,25.20
2022-11-09T14:36:00,cen,25.20
2022-11-09T14:38:00,cen,25.20
2022-11-09T14:40:00,cen,24.00
2022-11-09T14:41:00,cen,12.00
2022-11-09T14:43:00,cen,23.99
2022-11-09T14:45:00,cen,24.00
2022-11-09T14:47:00,cen,22.80
2022-11-09T14:48:00,cen,12.00
2022-11-09T14:50:00,cen,26.40
2022-11-09T14:51:00,cen,15.60
2022-11-09T14:53:00,cen,22.80
2022-11-09T14:55:00,cen,25.20
2022-11-09T14:56:00,cen,12.00
2022-11-09T14:58:00,cen,24.00
2022-11-09T14:59:00,cen,10.80
2022-11-09T15:01:00,cen,25.20
2022-11-09T15:03:00,cen,22.80
2022-11-09T15:04:00,cen,12.00
2022-11-09T15:05:00,cen,12.00
2022-11-09T15:07:00,cen,22.80
2022-11-09T15:09:00,cen,23.99
2022-11-09T15:11:00,cen,24.00
2022-11-09T15:13:00,cen,22.80
2022-11-09T15:14:00,cen,12.00
2022-11-09T15:15:00,cen,10.80
2022-11-09T15:17:00,cen,22.80
2022-11-09T15:18:00,cen,10.80
2022-11-09T15:20:00,cen,22.80
2022-11-09T15:22:00,cen,22.80
2022-11-09T15:24:00,cen,38.39
2022-11-09T15:26:00,cen,39.60
2022-11-09T15:28:00,cen,27.60
2022-11-09T15:30:00,cen,21.60
2022-11-09T15:32:00,cen,20.40
2022-11-09T15:33:00,cen,10.80
2022-11-09T15:35:00,cen,20.41
2022-11-09T15:37:00,cen,21.60
2022-11-09T15:39:00,cen,25.20
2022-11-09T15:41:00,cen,27.60
2022-11-09T15:42:00,cen,13.20
2022-11-09T15:44:00,cen,26.40
2022-11-09T15:45:00,cen,13.20
2022-11-09T15:47:00,cen,26.40
2022-11-09T15:48:00,cen,12.00
2022-11-09T15:50:00,cen,22.80
2022-11-09T15:52:00,cen,22.80
2022-11-09T15:54:00,cen,21.60
2022-11-09T15:56:00,cen,26.40
2022-11-09T15:58:00,cen,21.60
2022-11-09T15:59:00,cen,9.60
2022-11-09T16:00:00,cen,13.20
2022-11-09T16:01:00,cen,12.00
2022-11-09T16:03:00,cen,22.80
2022-11-09T16:05:00,cen,22.80
2022-11-09T16:07:00,cen,25.20
2022-11-09T16:09:00,cen,22.80
2022-11-09T16:11:00,cen,24.00
2022-11-09T16:12:00,cen,10.80
2022-11-09T16:14:00,cen,21.60
2022-11-09T16:15:00,cen,12.00
2022-11-09T16:17:00,cen,22.80
2022-11-09T16:18:00,cen,22.80
2022-11-09T16:19:00,cen,22.80
2022-11-09T16:21:00,cen,24.00
2022-11-09T16:22:00,cen,9.60
2022-11-09T16:23:00,cen,12.00
2022-11-09T16:24:00,cen,10.80
2022-11-09T16:26:00,cen,21.61
2022-11-09T16:28:00,cen,21.60
2022-11-09T16:30:00,cen,20.40
2022-11-09T16:31:00,cen,9.60
2022-11-09T16:33:00,cen,18.00
2022-11-09T16:34:00,cen,10.80
2022-11-09T16:36:00,cen,19.20
2022-11-09T16:37:00,cen,10.80
2022-11-09T16:39:00,cen,19.20
2022-11-09T16:41:00,cen,21.60
2022-11-09T16:42:00,cen,9.60
2022-11-09T16:43:00,cen,8.40
2022-11-09T16:45:00,cen,20.40
2022-11-09T16:47:00,cen,18.00
2022-11-09T16:49:00,cen,18.00
2022-11-09T16:51:00,cen,16.79
2022-11-09T16:53:00,cen,18.00
2022-11-09T16:55:00,cen,18.00
2022-11-09T16:56:00,cen,8.40
2022-11-09T16:58:00,cen,16.80
2022-11-09T16:59:00,cen,8.40
2022-11-09T17:01:00,cen,18.00
2022-11-09T17:03:00,cen,18.00
2022-11-09T17:05:00,cen,13.20
2022-11-09T17:07:00,cen,13.21
2022-11-09T17:09:00,cen,12.00
2022-11-09T17:11:00,cen,12.00
2022-11-09T17:12:00,cen,6.01
2022-11-09T17:14:00,cen,12.00
2022-11-09T17:16:00,cen,10.80
2022-11-09T17:18:00,cen,12.00
2022-11-09T17:19:00,cen,4.80
2022-11-09T17:21:00,cen,12.00
2022-11-09T17:22:00,cen,6.00
2022-11-09T17:24:00,cen,13.20
2022-11-09T17:26:00,cen,12.00
2022-11-09T17:28:00,cen,12.00
2022-11-09T17:30:00,cen,12.00
2022-11-09T17:32:00,cen,12.00
2022-11-09T17:33:00,cen,4.80
2022-11-09T17:35:00,cen,9.60
2022-11-09T17:36:00,cen,6.00
2022-11-09T17:38:00,cen,9.60
2022-11-09T17:40:00,cen,13.20
2022-11-09T17:42:00,cen,10.80
2022-11-09T17:43:00,cen,4.80
2022-11-09T17:45:00,cen,9.60
2022-11-09T17:47:00,cen,12.00
2022-11-09T17:48:00,cen,14.40
2022-11-09T17:50:00,cen,26.40
2022-11-09T17:52:00,cen,23.99
2022-11-09T17:53:00,cen,4.80
2022-11-09T17:55:00,cen,12.00
2022-11-09T17:56:00,cen,6.00
2022-11-09T17:58:00,cen,9.60
2022-11-09T17:59:00,cen,6.00
2022-11-09T18:01:00,cen,9.60
2022-11-09T18:02:00,cen,6.00
2022-11-09T18:04:00,cen,9.60
2022-11-09T18:05:00,cen,4.80
2022-11-09T18:07:00,cen,8.40
2022-11-09T18:08:00,cen,4.80
2022-11-09T18:09:00,cen,4.80
2022-11-09T18:11:00,cen,9.60
2022-11-09T18:12:00,cen,6.00
2022-11-09T18:13:00,cen,4.80
2022-11-09T18:15:00,cen,10.80
2022-11-09T18:17:00,cen,9.60
2022-11-09T18:18:00,cen,6.00
2022-11-09T18:19:00,cen,4.80
2022-11-09T18:21:00,cen,9.60
2022-11-09T18:23:00,cen,9.60
2022-11-09T18:25:00,cen,9.59
2022-11-09T18:27:00,cen,9.60
2022-11-09T18:29:00,cen,9.60
2022-11-09T18:31:00,cen,9.59
2022-11-09T18:32:00,cen,4.80
2022-11-09T18:34:00,cen,12.00
2022-11-09T18:35:00,cen,6.00
2022-11-09T18:36:00,cen,4.80
2022-11-09T18:38:00,cen,9.59
2022-11-09T18:40:00,cen,9.60
2022-11-09T18:41:00,cen,4.80
2022-11-09T18:42:00,cen,3.60
2022-11-09T18:44:00,cen,8.40
2022-11-09T18:46:00,cen,8.40
2022-11-09T18:47:00,cen,4.80
2022-11-09T18:48:00,cen,4.80
2022-11-09T18:50:00,cen,8.39
2022-11-09T18:51:00,cen,4.80
2022-11-09T18:53:00,cen,9.59
2022-11-09T18:54:00,cen,3.60
2022-11-09T18:56:00,cen,10.80
2022-11-09T18:58:00,cen,9.59
2022-11-09T18:59:00,cen,6.00
2022-11-09T19:00:00,cen,3.60
2022-11-09T19:02:00,cen,8.40
2022-11-09T19:04:00,cen,9.60
2022-11-09T19:06:00,cen,8.39
2022-11-09T19:07:00,cen,3.60
2022-11-09T19:09:00,cen,8.40
2022-11-09T19:10:00,cen,4.80
2022-11-09T19:12:00,cen,9.60
2022-11-09T19:13:00,cen,6.00
2022-11-09T19:15:00,cen,9.60
2022-11-09T19:17:00,cen,12.00
2022-11-09T19:19:00,cen,10.80
2022-11-09T19:20:00,cen,4.80
2022-11-09T19:22:00,cen,9.60
2022-11-09T19:24:00,cen,8.40
2022-11-09T19:26:00,cen,9.60
2022-11-09T19:28:00,cen,9.59
2022-11-09T19:30:00,cen,8.40
2022-11-09T19:32:00,cen,9.60
2022-11-09T19:34:00,cen,9.60
2022-11-09T19:36:00,cen,8.39
2022-11-09T19:37:00,cen,3.60
2022-11-09T19:39:00,cen,10.80
2022-11-09T19:40:00,cen,6.00
2022-11-09T19:42:00,cen,8.40
2022-11-09T19:44:00,cen,9.59
2022-11-09T19:45:00,cen,4.80
2022-11-09T19:46:00,cen,3.60
2022-11-09T19:48:00,cen,9.60
2022-11-09T19:49:00,cen,4.80
2022-11-09T19:51:00,cen,8.40
2022-11-09T19:53:00,cen,8.40
2022-11-09T19:54:00,cen,3.60
2022-11-09T19:56:00,cen,9.59
2022-11-09T19:58:00,cen,8.40
2022-11-09T20:00:00,cen,10.80
2022-11-09T20:01:00,cen,4.80
2022-11-09T20:03:00,cen,8.40
2022-11-09T20:05:00,cen,8.40
2022-11-09T20:07:00,cen,9.60
2022-11-09T20:09:00,cen,9.59
2022-11-09T20:11:00,cen,8.40
2022-11-09T20:12:00,cen,4.80
2022-11-09T20:14:00,cen,8.39
2022-11-09T20:16:00,cen,9.60
2022-11-09T20:17:00,cen,4.80
2022-11-09T20:18:00,cen,4.80
2022-11-09T20:20:00,cen,12.00
2022-11-09T20:21:00,cen,4.80
2022-11-09T20:23:00,cen,9.59
2022-11-09T20:24:00,cen,3.60
2022-11-09T20:25:00,cen,6.00
2022-11-09T20:26:00,cen,3.60
2022-11-09T20:28:00,cen,9.59
2022-11-09T20:30:00,cen,8.40
2022-11-09T20:32:00,cen,9.60
2022-11-09T20:34:00,cen,8.40
2022-11-09T20:36:00,cen,8.40
2022-11-09T20:38:00,cen,9.59
2022-11-09T20:39:00,cen,4.80
2022-11-09T20:41:00,cen,10.80
2022-11-09T20:42:00,cen,3.60
2022-11-09T20:44:00,cen,8.40
2022-11-09T20:45:00,cen,4.80
2022-11-09T20:47:00,cen,10.80
2022-11-09T20:48:00,cen,4.80
2022-11-09T20:50:00,cen,9.60
2022-11-09T20:51:00,cen,4.80
2022-11-09T20:52:00,cen,4.80
2022-11-09T20:54:00,cen,8.40
2022-11-09T20:56:00,cen,9.60
2022-11-09T20:57:00,cen,3.60
2022-11-09T20:58:00,cen,6.00
2022-11-09T21:00:00,cen,9.59
2022-11-09T21:01:00,cen,3.60
2022-11-09T21:03:00,cen,8.40
2022-11-09T21:05:00,cen,8.40
2022-11-09T21:07:00,cen,9.59
2022-11-09T21:09:00,cen,9.60
2022-11-09T21:11:00,cen,8.40
2022-11-09T21:12:00,cen,4.80
2022-11-09T21:14:00,cen,8.40
2022-11-09T21:15:00,cen,4.80
2022-11-09T21:17:00,cen,9.59
2022-11-09T21:19:00,cen,10.80
2022-11-09T21:21:00,cen,9.60
2022-11-09T21:23:00,cen,9.59
2022-11-09T21:24:00,cen,3.60
2022-11-09T21:25:00,cen,4.80
2022-11-09T21:27:00,cen,8.40
2022-11-09T21:29:00,cen,8.40
2022-11-09T21:30:00,cen,4.80
2022-11-09T21:32:00,cen,8.40
2022-11-09T21:34:00,cen,8.40
2022-11-09T21:35:00,cen,3.60
2022-11-09T21:37:00,cen,8.40
2022-11-09T21:38:00,cen,3.60
2022-11-09T21:39:00,cen,6.00
2022-11-09T21:41:00,cen,8.40
2022-11-09T21:42:00,cen,4.80
2022-11-09T21:44:00,cen,10.80
2022-11-09T21:45:00,cen,4.80
2022-11-09T21:47:00,cen,8.40
2022-11-09T21:49:00,cen,8.40
2022-11-09T21:51:00,cen,24.00
2022-11-09T21:53:00,cen,25.20
2022-11-09T21:55:00,cen,19.20
2022-11-09T21:57:00,cen,9.60
2022-11-09T21:58:00,cen,6.00
2022-11-09T22:00:00,cen,10.80
2022-11-09T22:02:00,cen,9.59
2022-11-09T22:04:00,cen,10.80
2022-11-09T22:06:00,cen,10.80
2022-11-09T22:08:00,cen,9.60
2022-11-09T22:09:00,cen,3.60
2022-11-09T22:11:00,cen,9.59
2022-11-09T22:13:00,cen,9.60